Wind_Speed
20 20 22 24 25 25 24 25 26 25 22 20 20 18 16 15 15 14 13 13 13 13 13 12 12 13 14 16 17 19 20 21 21 21 22 23 23 23 24 25 25 25 25 23 22 21 23 25 25 26 27 23 21 21 19 17 17 16 13 12 11 11 10 8 7 8 10 12 13 15 17 18 19 21 22 23 24 25 25 25 24 22 22 22 22
21 21 22 24 25 25 24 26 27 25 23 22 20 19 16 15 15 14 14 13 12 13 14 14 14 14 15 17 18 19 21 22 23 24 24 25 25 25 25 26 26 26 27 26 25 24 25 26 26 26 27 24 21 21 20 19 18 17 15 14 12 11 11 9 8 8 10 13 14 15 17 18 19 20 22 23 24 25 26 26 26 25 23 23 23
23 22 23 24 25 25 25 26 27 26 25 23 21 19 17 15 15 14 14 14 13 13 13 14 15 15 16 17 18 19 20 22 24 26 27 27 28 28 28 28 28 28 28 28 28 28 27 27 26 26 26 24 21 20 20 19 19 18 17 16 14 14 13 11 10 10 10 11 14 17 18 19 19 20 21 22 22 23 24 26 26 26 26 26 25
24 24 24 25 26 26 26 26 28 27 25 24 22 19 18 16 15 15 15 15 14 13 13 14 15 16 16 17 18 19 20 22 24 26 28 29 30 31 31 31 31 30 30 29 30 30 29 28 27 25 26 24 20 20 20 20 20 20 19 18 17 16 14 13 12 13 13 13 15 18 21 22 22 22 22 23 23 23 24 25 26 27 27 28 28
26 25 25 26 27 27 26 27 27 27 25 24 22 20 18 17 16 15 16 16 15 15 14 15 15 16 17 19 20 21 22 24 25 27 28 30 30 31 32 33 33 33 32 31 31 31 31 30 28 25 25 24 21 20 20 20 20 21 21 20 18 16 15 15 15 16 17 18 19 22 25 27 26 25 24 25 25 25 26 26 27 28 28 28 27
28 27 26 27 28 27 27 26 26 26 25 24 22 21 19 18 16 16 16 16 17 16 16 15 16 17 18 20 22 24 25 27 28 29 31 32 32 33 33 34 34 34 34 33 33 32 31 30 28 26 24 24 22 20 21 21 21 21 22 21 19 17 17 18 19 20 22 23 24 25 26 28 28 26 26 27 28 27 28 28 28 28 28 29 28
29 29 27 27 27 27 26 25 24 24 24 23 22 21 20 18 17 16 15 17 17 17 16 16 17 18 20 21 23 24 26 28 29 31 32 33 34 34 35 36 35 33 33 34 34 33 32 30 29 26 24 23 22 21 21 21 21 22 23 22 21 20 21 21 22 24 26 26 26 27 28 30 31 30 28 29 30 30 30 31 30 29 28 29 29
31 30 29 28 27 26 25 24 23 24 23 23 23 22 21 20 18 17 17 17 17 16 16 17 18 19 20 21 22 24 26 27 28 30 32 32 33 33 35 35 33 32 32 33 34 33 32 31 30 27 25 23 22 22 22 22 22 23 24 24 23 23 23 24 25 26 27 26 26 28 31 33 34 33 31 31 31 31 32 33 34 32 30 29 28
31 31 30 30 28 26 25 24 24 24 24 23 24 23 22 21 20 19 19 18 17 17 17 18 19 20 20 22 23 24 26 27 28 30 31 31 30 31 33 33 32 31 32 32 33 33 33 32 30 28 26 24 23 23 23 22 23 24 25 25 24 24 24 25 26 26 26 27 28 30 34 36 36 34 32 32 32 33 33 35 35 34 32 30 27
31 30 29 30 29 26 25 25 25 24 24 24 24 23 22 22 21 21 20 19 19 19 19 19 20 20 21 22 23 24 26 27 28 29 30 30 30 30 32 33 33 31 30 31 32 33 33 32 31 29 28 27 26 24 23 23 24 24 25 25 25 24 24 25 25 26 27 28 30 33 36 38 35 32 32 32 33 33 35 35 35 33 32 32 29
29 28 26 28 30 28 27 27 26 25 24 23 24 24 23 23 22 21 20 20 20 20 20 21 21 21 22 22 22 23 24 26 27 28 29 30 30 30 31 32 33 31 29 31 33 33 33 32 31 31 30 29 28 27 24 23 24 25 26 26 25 24 24 25 25 26 29 31 33 35 38 38 34 31 31 32 33 34 36 36 35 34 33 34 34
27 26 24 24 28 29 28 28 28 26 24 24 23 23 23 23 22 22 22 21 21 22 22 21 20 20 20 20 20 20 22 24 24 25 27 29 30 31 31 31 32 31 31 33 32 32 32 32 33 33 32 31 30 29 26 23 24 26 26 26 25 24 24 25 27 29 31 33 34 36 38 37 33 31 32 33 34 36 37 37 37 36 36 36 36
25 25 23 22 25 28 30 29 28 27 26 25 23 23 23 24 23 23 23 23 23 23 23 21 20 19 18 18 19 19 20 21 21 22 25 29 31 31 30 31 33 33 33 33 31 31 32 32 33 34 33 33 31 29 26 24 24 26 27 26 24 23 23 26 29 31 33 34 36 38 39 37 34 32 33 35 36 37 38 38 38 38 37 36 35
25 24 23 22 23 26 29 30 30 29 28 26 25 25 25 24 23 23 24 24 24 24 22 21 20 19 17 16 17 19 20 19 19 21 24 28 32 32 29 30 33 34 33 32 31 31 32 33 34 35 36 35 32 28 25 24 25 27 27 26 23 21 22 26 30 32 33 35 38 41 41 38 35 35 35 36 37 38 39 39 39 38 38 37 35
26 25 23 22 23 25 27 30 31 31 30 29 28 28 27 25 25 25 25 25 25 24 23 21 20 17 15 14 18 21 21 18 18 21 24 29 33 32 28 28 32 32 32 32 32 32 33 33 34 36 37 35 32 30 28 26 25 27 28 26 23 21 22 27 31 32 34 36 40 42 41 37 35 36 36 37 38 38 39 40 39 39 38 37 35
28 26 24 23 23 25 27 29 31 32 32 31 30 30 29 28 27 26 26 27 27 25 23 21 18 16 14 16 21 24 21 19 19 21 24 28 32 32 28 27 30 32 32 32 32 32 34 34 34 34 36 36 35 34 31 26 23 25 28 26 24 23 25 28 31 33 35 39 41 40 37 34 35 36 36 37 38 39 40 40 40 39 38 37 35
29 27 26 24 24 25 28 30 32 32 31 31 30 30 30 29 28 28 29 29 26 24 22 20 16 14 16 19 24 25 22 21 21 21 23 27 31 32 29 27 29 31 31 30 30 31 33 34 32 31 34 39 39 34 28 24 22 25 27 25 24 25 26 28 31 33 37 39 38 36 33 33 35 36 37 38 38 39 40 40 39 38 37 36 34
31 29 28 27 26 27 29 31 31 31 30 29 29 29 29 29 29 29 28 27 25 23 21 17 14 15 18 22 26 28 25 24 24 24 24 27 30 32 30 28 28 30 28 27 27 30 32 32 31 30 33 39 38 31 27 27 25 24 23 22 23 25 25 27 30 33 35 35 33 33 33 34 36 37 38 38 38 39 40 39 38 36 35 34 33
34 32 31 30 30 30 31 32 31 29 28 28 28 29 29 29 30 29 26 25 24 21 17 15 16 18 21 24 26 25 24 24 26 26 26 27 30 31 31 29 28 27 25 24 26 29 31 32 33 33 34 38 36 30 30 30 25 19 19 20 22 23 24 26 30 32 33 33 32 33 34 36 37 38 38 38 38 38 38 37 36 35 33 32 32
37 34 34 34 33 34 34 33 31 28 26 28 28 29 29 30 31 29 25 23 22 18 16 16 19 21 22 23 22 21 21 24 27 27 27 29 30 31 31 29 27 24 23 23 25 28 30 31 34 36 36 36 32 29 30 28 21 17 18 19 19 21 24 28 31 32 33 33 33 35 36 37 38 38 38 37 37 36 35 34 33 32 32 31 30
40 38 38 37 36 37 36 33 31 28 27 28 29 29 31 31 30 28 25 23 21 18 16 17 19 20 21 21 20 21 22 25 26 27 28 29 29 30 30 29 27 24 22 22 22 23 25 28 30 33 31 27 25 24 24 22 19 17 17 17 19 23 27 29 32 33 34 34 35 36 38 38 37 37 36 36 36 35 33 31 30 30 29 30 30
43 42 41 40 38 37 35 33 32 30 30 30 30 31 32 31 29 28 25 23 21 17 16 18 20 21 20 20 21 23 24 25 26 27 28 28 28 29 29 28 26 23 20 19 18 19 22 23 23 22 20 19 20 20 19 17 18 18 17 19 23 26 29 31 32 33 34 35 36 37 37 36 36 35 35 34 32 31 30 28 27 27 27 28 30
43 44 43 42 40 37 36 36 34 33 32 31 32 32 32 30 29 27 25 22 19 16 16 18 19 19 20 24 25 25 26 27 27 27 27 26 26 27 28 27 24 20 18 16 16 17 18 18 17 17 17 17 17 17 16 17 18 18 20 23 26 28 30 31 32 33 34 35 36 36 36 35 35 34 33 31 28 27 27 26 25 25 26 26 27
39 43 45 44 42 39 39 39 37 36 34 34 34 33 30 30 28 27 24 20 17 15 15 16 18 18 23 28 29 28 29 29 28 26 26 25 26 26 26 24 22 19 17 16 16 16 15 14 15 15 14 13 13 14 16 18 19 21 23 25 27 28 29 30 32 34 35 36 36 36 36 35 34 32 30 27 25 25 25 24 24 25 26 26 26
37 42 46 46 44 42 41 41 40 38 36 35 34 31 31 31 29 25 21 17 14 13 13 15 17 19 24 29 30 29 30 29 27 26 26 25 25 24 23 22 21 19 18 17 16 14 12 11 10 10 10 12 13 15 18 19 21 23 25 26 26 28 29 32 33 34 35 36 36 36 35 33 30 28 27 25 24 25 25 25 25 26 26 26 26
38 41 45 47 46 44 43 43 41 38 36 34 33 32 33 31 26 21 18 15 12 12 14 16 18 21 26 30 31 30 29 28 27 26 25 24 23 22 21 21 20 18 16 15 13 12 10 9 8 9 11 13 14 16 19 21 23 24 25 25 27 29 31 33 33 33 34 35 34 33 31 28 25 24 24 24 24 25 26 26 25 25 26 26 25
40 42 45 47 47 45 43 41 39 37 36 35 35 35 33 28 22 17 14 13 13 15 17 18 20 24 29 31 30 29 27 27 26 25 24 22 20 20 20 20 19 17 14 13 12 11 9 8 9 11 13 14 16 18 20 22 23 24 25 27 28 30 31 32 32 32 32 31 30 27 25 23 22 21 22 23 24 25 26 27 25 24 24 26 25
41 44 46 46 45 42 39 38 37 37 37 37 36 34 30 23 18 15 12 13 15 17 19 21 24 28 31 31 30 27 25 25 25 23 21 20 19 19 19 18 17 14 12 12 11 10 9 9 10 12 14 15 17 19 20 21 23 25 27 29 29 29 30 31 30 29 27 27 26 24 23 21 20 20 21 22 22 24 25 25 24 24 24 25 25
43 43 42 41 39 37 36 36 36 37 37 36 33 29 24 19 16 14 14 15 17 20 25 28 28 29 30 29 27 25 24 24 22 20 18 17 18 18 18 16 14 12 12 11 11 9 9 10 12 14 15 16 17 19 20 22 25 28 29 30 29 29 28 28 26 25 24 25 25 23 22 21 20 20 20 21 22 23 23 23 23 23 24 24 23
41 38 35 34 34 35 35 35 35 35 34 31 26 22 19 17 15 15 16 19 22 26 28 27 25 25 25 25 24 22 21 21 19 17 16 17 17 18 17 15 13 11 10 10 10 10 11 12 13 14 14 16 17 20 22 24 27 28 29 30 29 29 28 27 25 24 24 25 25 23 22 21 21 21 22 22 23 23 23 23 23 23 23 22 22
33 31 29 29 31 33 34 35 35 33 29 24 20 17 16 15 15 17 21 24 26 26 25 22 21 22 22 22 22 20 18 17 17 16 16 16 16 16 14 12 11 10 10 10 11 11 10 10 11 13 15 17 20 22 24 26 27 28 29 30 29 29 29 29 28 26 26 26 25 24 23 22 22 22 22 23 24 23 22 22 22 22 22 21 21
25 26 27 29 32 33 34 33 30 26 23 20 18 16 14 15 18 21 23 24 24 23 22 20 20 21 21 21 20 18 17 16 16 16 16 16 14 13 12 11 11 11 11 11 10 8 7 8 11 14 18 20 23 24 25 26 28 29 29 29 29 28 28 29 29 28 27 26 25 24 23 22 22 22 21 23 24 23 22 21 21 21 21 20 21
22 26 29 30 31 31 29 27 24 21 20 19 18 17 18 20 22 23 22 21 21 21 21 21 21 22 21 19 17 16 16 16 17 17 16 15 13 12 12 12 12 11 10 9 7 7 8 11 14 18 21 23 24 25 25 26 27 27 27 26 27 27 28 29 29 28 27 26 24 23 23 22 23 22 21 22 23 22 21 20 20 20 20 20 20
21 24 26 26 25 24 23 22 20 18 18 18 19 19 20 20 21 21 19 18 19 20 21 20 19 17 16 16 16 16 17 18 18 17 15 14 13 12 13 12 11 10 8 8 8 9 11 14 17 20 23 24 24 23 24 25 25 24 24 25 26 26 28 29 29 28 26 25 24 23 23 22 22 21 21 21 22 21 20 19 19 19 19 19 19
22 23 23 22 21 21 20 19 18 18 18 19 19 18 18 19 20 20 20 19 18 16 15 14 13 13 15 16 17 17 18 18 17 16 14 13 13 13 12 10 9 9 9 9 10 12 14 16 20 22 24 23 23 22 23 23 22 22 23 24 25 26 27 27 27 26 25 24 24 25 24 22 21 20 20 21 21 20 19 18 18 18 18 19 19
22 23 22 21 19 19 18 17 17 16 15 15 14 13 15 18 19 19 18 16 13 12 12 12 13 15 16 17 17 18 18 16 15 15 14 14 13 12 10 9 9 10 11 12 13 15 17 19 22 23 23 23 22 22 21 20 20 20 22 23 23 24 24 24 25 25 24 23 23 24 23 21 20 20 20 20 19 19 18 17 17 17 17 18 18
19 18 17 16 15 14 14 12 11 10 10 10 11 12 14 16 16 16 15 13 13 15 17 16 15 16 17 17 18 17 16 15 15 15 15 14 12 11 10 10 11 12 13 14 16 18 20 21 22 22 21 21 22 21 20 19 19 20 21 22 22 21 21 21 21 22 21 21 21 20 20 19 18 18 19 19 18 17 17 17 17 16 16 17 18
14 13 12 11 11 11 10 9 9 10 11 11 13 14 14 14 15 16 15 15 16 18 17 15 14 15 16 16 16 15 14 14 14 14 13 12 12 12 11 12 13 14 16 18 19 21 22 22 21 19 19 19 20 19 19 19 19 19 20 21 20 19 18 18 18 18 18 19 19 19 18 18 17 17 18 17 16 16 16 16 16 16 16 17 17
10 9 9 10 9 9 9 9 10 11 11 12 13 13 14 14 15 15 13 14 15 16 14 13 13 14 14 14 14 14 13 13 13 13 12 13 13 13 13 14 16 18 20 21 22 23 23 21 18 16 16 17 17 17 17 18 18 18 19 19 18 17 16 16 16 16 16 17 18 19 18 17 16 16 16 16 15 15 15 15 16 16 16 16 17
9 8 8 8 8 8 8 9 9 10 10 10 11 12 13 14 14 12 11 12 14 15 13 12 12 12 12 12 12 12 12 12 12 12 13 13 13 14 15 16 19 21 23 24 24 23 22 19 16 15 16 16 17 17 17 17 17 16 16 15 15 16 16 16 16 15 16 17 18 18 17 16 15 15 15 15 14 15 15 15 15 16 16 17 17
9 8 8 8 9 10 10 10 11 11 11 11 11 11 11 12 13 12 11 12 13 14 12 11 11 12 11 10 10 11 12 12 12 12 13 13 14 16 17 19 21 23 25 25 24 22 21 19 17 16 16 16 17 18 17 17 16 15 14 14 15 16 16 16 16 16 16 17 17 17 16 15 15 14 14 14 14 14 15 15 15 15 16 16 17
10 9 9 9 11 12 11 10 10 9 8 8 8 9 11 12 13 13 12 12 13 13 11 10 11 11 11 11 11 11 11 12 13 13 14 15 17 18 20 21 22 23 23 23 22 21 20 19 18 17 16 16 17 17 16 16 16 15 15 15 16 17 17 17 17 16 16 17 17 16 15 14 14 13 13 13 13 14 14 14 15 15 15 15 16
10 11 11 11 13 12 10 8 8 8 7 7 9 11 12 13 13 13 12 12 12 11 10 10 11 11 11 11 11 11 12 14 14 15 16 17 19 20 20 21 21 22 22 21 19 17 17 17 18 18 17 17 17 17 17 16 16 15 16 17 18 18 18 17 17 16 16 16 17 17 15 14 13 13 12 13 13 13 14 14 14 14 14 14 15
10 13 13 13 12 11 8 8 8 9 10 10 11 12 12 13 12 12 12 12 11 10 11 12 12 12 12 12 12 13 15 16 16 16 17 18 19 20 20 20 20 19 19 19 17 16 15 16 18 18 18 17 16 16 16 16 15 15 16 17 18 19 18 17 17 16 16 16 17 17 15 14 13 12 12 12 13 13 14 14 13 13 13 13 14
12 13 12 11 11 10 9 10 11 12 12 12 12 13 13 13 12 13 13 13 13 12 12 13 13 13 14 14 15 15 16 17 17 17 18 18 19 19 19 19 18 17 17 17 17 16 16 15 15 16 16 15 14 15 16 16 16 15 15 17 18 18 18 17 17 17 17 16 16 16 15 14 13 12 11 12 12 13 13 13 12 12 12 12 13
13 13 13 13 14 13 12 12 13 14 14 14 14 14 13 13 12 13 13 14 15 15 14 14 14 15 16 17 17 16 17 18 18 19 20 21 21 21 20 19 18 17 17 18 18 17 16 15 14 14 15 15 15 16 17 16 16 15 15 16 18 18 18 17 18 18 17 16 15 15 14 13 13 12 11 11 12 12 13 13 12 11 11 11 12
17 16 15 15 14 13 13 14 15 16 16 16 15 14 14 13 13 13 14 16 17 17 15 15 15 16 17 17 17 18 19 20 21 21 22 22 23 22 22 21 20 19 19 20 19 18 17 16 16 15 16 16 17 19 19 18 16 15 15 16 18 18 18 18 18 17 17 16 15 14 13 13 12 12 11 11 11 12 12 12 12 11 10 11 12
15 14 13 12 12 12 14 15 16 16 16 14 13 14 15 14 14 15 16 17 18 18 16 15 15 16 17 18 20 21 21 22 22 22 22 23 23 24 24 24 22 21 20 21 20 19 18 18 18 18 17 17 18 19 19 19 17 16 16 16 17 18 18 18 17 16 16 16 15 13 12 12 12 11 11 11 11 12 12 12 12 11 10 11 12
13 13 14 14 14 14 14 14 15 15 14 14 14 16 17 17 17 17 17 16 17 17 17 17 18 19 20 22 24 23 22 20 19 19 19 19 19 20 21 22 23 23 22 22 21 20 19 19 19 18 17 17 18 18 18 18 17 17 17 17 17 17 17 16 15 15 15 15 14 13 12 12 11 11 11 11 11 11 12 12 12 11 11 11 12
15 15 15 15 15 14 13 14 15 16 15 15 16 16 15 14 15 16 16 16 17 18 19 20 22 23 23 22 21 20 18 17 17 16 15 15 15 16 16 17 18 19 20 20 21 20 20 19 19 18 18 18 17 17 17 17 17 17 17 17 17 16 15 14 14 14 15 15 14 13 12 12 11 11 11 11 11 11 12 12 11 11 11 12 13
14 14 14 14 14 14 13 14 15 15 14 13 13 12 11 11 13 15 16 17 18 18 18 18 19 18 17 16 16 16 16 16 17 17 17 17 17 16 16 15 15 16 17 18 18 19 19 19 19 18 17 16 16 15 15 16 16 16 16 17 16 15 14 14 14 14 14 14 13 13 12 12 11 11 12 12 12 12 12 12 11 11 12 12 13
Wind_Direction
223 222 220 220 220 219 219 217 217 218 219 221 222 224 224 222 226 230 231 233 236 242 252 260 263 263 263 267 272 276 280 286 293 298 303 307 310 313 315 316 315 312 309 309 309 310 315 320 327 334 334 321 303 296 293 286 284 285 285 285 285 287 289 292 296 301 307 311 313 312 312 313 314 313 312 312 312 311 310 309 309 308 307 306 304
222 222 218 217 219 220 219 217 217 219 220 222 224 225 226 224 227 232 237 241 245 248 255 264 269 270 269 271 275 279 282 287 292 297 300 303 306 309 310 312 312 310 308 306 305 305 308 314 320 327 330 321 301 293 291 286 284 284 285 285 283 282 282 284 287 289 298 307 311 311 312 314 316 314 313 313 313 312 310 309 308 308 308 305 304
221 223 219 217 218 219 219 218 218 220 222 224 226 227 229 231 232 237 242 248 255 259 263 269 274 277 277 280 283 287 289 292 296 299 300 301 302 304 306 308 308 309 308 306 304 303 304 309 314 319 325 319 299 287 287 284 280 280 282 283 279 276 279 282 281 280 287 300 307 309 311 313 315 314 312 311 312 311 309 308 307 308 307 306 305
220 222 220 217 218 219 219 219 219 221 224 226 228 230 232 236 239 244 249 253 260 267 270 272 276 280 283 287 291 293 294 296 298 300 301 301 302 302 303 304 306 307 308 306 304 304 303 305 309 314 321 317 297 283 283 281 279 279 280 281 279 278 284 287 284 285 290 295 300 303 306 309 311 313 312 311 311 310 309 308 306 306 305 304 304
219 220 221 218 218 219 220 221 221 222 225 227 230 232 234 238 243 249 253 258 263 268 272 276 280 284 288 291 293 294 294 295 296 297 298 298 300 302 302 303 304 305 306 305 303 303 302 302 305 310 318 317 299 281 280 280 277 277 278 278 279 280 283 284 283 286 290 292 294 298 302 306 307 308 310 311 311 312 312 310 309 307 305 304 303
219 219 220 220 220 219 221 223 224 224 225 228 231 233 236 240 244 248 254 259 262 266 270 277 282 286 289 291 292 294 294 294 294 295 295 297 299 300 301 302 303 304 305 304 301 300 299 300 302 305 313 316 302 283 279 279 276 274 274 275 276 277 276 278 281 286 291 294 298 301 306 309 309 308 309 310 311 313 313 312 310 308 305 303 302
219 218 219 221 221 221 222 226 228 227 227 228 232 234 237 241 243 245 250 255 260 267 272 278 284 287 289 291 292 294 294 294 295 295 296 298 300 301 301 300 301 302 302 301 298 297 297 297 299 301 306 309 302 288 279 278 276 273 273 273 274 273 274 278 284 290 295 299 303 309 313 315 314 311 310 309 309 311 312 311 310 308 304 301 301
222 219 219 221 223 222 222 226 229 229 228 229 231 234 236 240 242 241 242 248 256 266 275 281 286 288 290 292 294 295 295 295 297 296 298 300 301 301 300 299 298 297 295 295 295 295 295 295 295 297 299 300 296 288 282 278 275 273 272 272 272 273 276 281 287 293 296 300 307 314 318 320 317 312 309 308 308 309 310 310 309 308 305 302 302
225 222 219 220 224 223 221 224 227 227 227 228 229 231 234 237 241 240 239 241 249 259 269 275 281 285 289 292 293 294 296 297 298 298 298 299 299 298 298 297 295 291 289 289 290 291 291 291 290 291 293 291 287 281 277 274 272 271 271 271 272 274 277 281 286 290 293 299 308 315 319 322 319 311 307 308 308 309 309 308 307 307 306 304 304
228 227 222 219 221 223 221 222 226 226 225 226 227 228 229 233 238 242 242 242 246 253 260 266 273 281 287 290 292 294 297 299 300 299 298 298 298 296 296 296 293 290 287 286 287 289 289 287 286 286 287 286 282 274 269 269 269 268 269 271 272 273 275 279 283 287 291 299 309 315 319 321 316 308 306 308 307 308 309 307 306 306 304 304 304
230 230 228 221 219 221 221 221 225 226 225 224 225 225 226 229 234 241 247 247 248 252 257 262 272 282 287 291 294 297 301 303 303 302 301 300 297 294 292 292 291 290 289 287 288 289 287 285 284 283 283 282 278 270 263 262 264 265 267 269 269 269 272 277 281 285 292 299 307 315 320 319 312 306 306 307 307 308 308 307 306 305 304 304 305
233 232 231 225 218 218 221 222 225 227 227 226 225 225 226 228 232 238 245 248 251 254 258 266 276 284 288 291 295 301 304 304 303 302 302 301 296 291 291 292 292 292 290 288 287 287 286 284 283 281 278 277 274 269 262 257 257 260 263 264 265 268 274 280 284 286 292 299 306 315 319 315 308 304 305 306 306 307 307 306 306 305 305 304 305
236 235 231 227 221 218 219 223 225 227 229 228 228 227 228 231 234 239 244 247 251 255 262 273 280 283 286 291 297 301 300 297 297 299 301 300 294 291 293 294 293 291 288 287 286 286 285 283 281 278 274 273 274 273 267 260 254 254 256 257 262 270 277 282 285 286 291 298 306 314 316 312 305 303 304 305 306 306 306 306 305 304 303 303 305
235 238 233 228 223 219 218 222 225 227 229 229 229 229 231 234 237 242 245 247 251 257 266 276 279 280 286 293 298 300 295 291 294 299 300 298 295 293 294 293 290 288 288 287 287 285 283 280 278 276 274 273 273 270 263 256 250 249 251 254 260 269 277 281 283 285 291 298 305 311 313 308 304 303 304 305 305 306 305 304 304 304 304 304 306
230 235 237 231 225 219 216 218 221 225 227 228 229 230 231 234 238 242 245 248 253 260 268 273 274 277 285 292 300 304 299 292 297 303 301 298 297 296 294 290 288 288 289 288 286 285 284 280 275 275 276 274 271 267 260 250 246 247 250 254 260 267 274 278 281 286 292 299 305 309 308 304 302 303 304 304 305 304 303 303 305 306 306 305 306
227 229 234 233 228 222 216 215 218 220 223 225 228 230 231 233 237 241 244 248 253 260 265 267 271 278 281 288 302 311 307 295 296 301 299 296 296 296 291 286 285 284 284 284 285 285 285 281 277 278 278 272 267 267 260 245 239 248 255 260 264 266 272 278 282 288 294 300 304 305 303 301 300 302 303 303 304 304 304 306 307 306 304 303 304
224 224 227 228 226 225 222 219 218 218 219 222 224 227 230 233 235 238 242 248 255 260 262 264 268 274 279 293 309 317 310 296 293 297 296 293 294 294 291 285 282 283 282 283 286 286 283 280 277 278 278 272 267 263 253 243 248 261 265 266 266 265 271 280 286 293 298 302 303 302 301 302 302 303 304 304 305 305 305 305 304 303 302 303 304
225 221 223 224 224 226 227 225 223 221 219 220 223 227 229 231 233 238 244 251 257 258 257 259 263 271 287 304 313 314 305 293 291 294 294 291 291 293 292 287 284 285 285 286 287 286 283 280 277 276 275 271 266 259 252 257 269 274 270 267 266 268 276 286 292 298 302 303 303 301 302 303 304 304 304 304 304 304 303 303 303 303 303 303 304
226 222 223 225 225 228 230 231 229 225 222 223 225 226 228 231 234 238 243 248 252 252 251 255 261 274 294 308 310 306 298 290 291 294 292 289 290 291 293 292 287 284 285 287 287 285 284 283 283 282 275 267 263 260 263 274 286 284 271 267 270 277 288 295 299 303 305 305 304 303 303 304 304 303 303 303 303 303 303 303 304 302 302 303 305
228 227 227 228 229 230 232 233 232 229 226 225 225 225 228 233 236 237 240 242 242 240 241 251 260 274 293 304 301 295 290 289 292 292 290 289 290 291 293 293 289 286 286 285 283 283 285 285 286 285 278 270 268 268 271 281 289 279 268 271 280 289 295 298 301 305 307 307 306 305 305 304 303 302 302 302 302 302 302 302 300 299 301 304 306
229 229 231 232 234 233 234 235 233 230 228 226 225 227 231 233 235 237 239 235 230 231 244 261 275 286 294 296 290 286 286 288 289 289 288 288 289 290 292 291 291 291 288 285 285 286 288 288 288 288 285 281 282 279 275 277 276 269 270 279 287 293 296 298 302 305 306 306 305 305 305 304 302 302 302 302 303 303 302 300 299 301 304 306 306
229 229 231 234 236 236 236 236 232 229 227 225 226 229 231 231 232 233 229 223 224 236 257 276 290 295 293 290 287 286 287 287 287 286 286 286 286 287 289 290 293 295 296 299 300 294 290 290 291 291 284 279 282 280 274 269 267 269 276 283 288 293 297 299 302 303 304 304 304 305 304 303 302 303 303 304 303 301 299 298 300 302 303 304 304
229 228 229 232 235 235 234 233 231 228 226 226 228 230 229 229 227 223 219 221 234 253 271 285 290 292 296 295 291 288 287 286 286 285 285 284 284 285 288 292 294 296 301 306 301 293 289 286 284 281 274 271 274 274 271 273 276 279 282 286 290 295 297 299 301 302 304 305 305 305 304 304 304 304 304 303 300 296 295 297 299 300 299 299 300
229 227 227 229 230 230 230 229 228 228 227 227 227 226 224 222 219 216 218 230 248 263 277 287 286 291 301 301 292 285 285 286 286 285 284 283 283 284 286 290 291 294 299 298 292 287 283 272 268 271 271 270 272 272 276 280 282 283 286 290 294 296 298 300 303 304 306 307 307 306 305 304 305 304 302 301 299 297 297 298 298 298 298 298 299
230 226 225 226 226 227 227 226 227 228 228 225 223 223 220 217 213 215 226 244 257 262 273 283 282 289 301 298 286 281 283 284 284 284 283 283 282 282 284 287 290 292 293 291 287 281 271 259 257 261 264 265 268 272 277 282 286 289 293 294 296 298 301 303 305 305 307 307 306 305 304 305 305 303 301 300 299 298 299 299 298 298 298 298 298
232 226 224 225 224 224 225 225 226 226 223 219 219 219 216 212 213 223 237 247 253 261 275 279 277 286 296 290 281 279 280 281 282 282 281 281 282 284 289 294 295 293 288 284 277 269 262 258 254 254 258 263 269 276 284 290 293 294 294 295 299 303 304 305 305 306 307 307 306 306 306 305 303 300 298 298 298 297 297 296 295 295 295 296 296
230 225 224 223 223 223 223 223 222 219 216 215 214 212 209 210 219 230 237 247 257 266 273 273 276 289 294 284 276 275 277 277 279 279 278 279 283 287 292 296 295 288 278 271 264 258 257 255 252 255 261 268 277 285 290 292 293 294 296 300 304 305 304 304 304 306 306 307 307 309 308 304 299 297 297 297 296 295 295 294 295 296 297 297 296
228 225 223 222 222 221 220 218 216 215 213 211 207 206 208 214 223 231 245 260 261 261 270 280 286 290 287 277 272 273 274 275 277 277 277 280 284 287 289 289 286 277 265 260 260 256 252 251 256 265 272 279 285 290 291 293 296 298 300 302 302 303 304 305 308 310 309 308 310 313 312 306 300 297 297 298 298 297 296 297 299 300 300 299 298
224 221 219 220 219 216 213 212 211 211 209 206 205 207 212 219 230 242 256 264 265 270 283 291 290 282 276 272 272 273 274 275 278 278 280 283 284 285 284 281 275 265 259 262 262 255 255 265 275 282 287 289 292 294 295 298 299 299 300 301 303 306 309 310 313 314 312 311 314 316 314 310 305 302 302 304 306 304 302 302 303 303 301 300 300
215 214 214 214 210 207 206 205 203 202 202 203 208 213 218 227 241 255 266 275 280 284 288 288 281 273 272 273 273 274 276 278 281 283 283 282 280 280 279 275 269 262 258 259 258 259 270 282 290 294 296 297 298 298 297 297 297 298 301 305 309 313 314 315 317 317 315 315 318 318 314 311 309 309 310 311 310 309 307 305 303 302 301 301 303
214 212 208 203 198 197 198 197 196 197 201 207 214 219 224 240 258 271 279 282 282 282 282 279 273 271 273 274 275 277 278 280 282 284 282 279 275 274 273 270 264 257 249 250 259 270 282 292 297 300 300 298 296 296 296 298 302 306 308 310 313 316 317 317 318 318 316 318 320 317 311 308 308 309 311 312 311 310 307 303 300 301 302 304 307
209 202 196 190 187 189 191 193 196 202 209 215 220 224 237 257 267 272 276 277 276 277 278 273 269 270 273 274 276 277 277 278 281 281 279 275 271 268 267 263 258 251 249 255 265 276 285 294 299 299 297 296 297 299 302 305 308 310 310 310 312 314 313 312 312 313 314 317 317 312 307 305 306 308 312 312 309 305 302 300 301 302 305 308 312
187 185 183 182 184 187 192 198 204 209 214 218 224 235 250 260 262 264 267 269 270 271 269 265 266 270 270 268 268 270 274 277 278 277 276 274 270 267 266 263 257 253 253 255 260 269 283 293 296 295 295 298 302 305 306 306 305 305 305 305 305 306 305 304 307 310 312 314 312 308 304 304 306 310 313 310 304 301 302 302 303 306 309 313 316
175 180 183 185 189 193 197 201 206 213 220 228 237 245 251 254 256 257 258 259 260 261 263 266 269 267 261 260 264 269 273 276 276 276 275 274 272 269 265 260 254 250 249 251 260 274 286 292 294 296 298 301 304 305 304 303 302 301 298 297 297 299 300 302 305 307 308 309 308 305 303 304 307 310 311 307 302 302 304 305 307 311 315 318 320
181 187 191 193 197 200 203 210 218 225 231 236 241 244 248 252 253 254 255 257 259 263 267 268 262 256 257 263 269 271 273 274 274 273 272 273 273 266 257 248 243 245 254 266 276 285 291 295 297 299 301 302 303 302 301 300 299 296 293 292 294 297 300 303 304 305 306 306 304 301 300 302 306 309 308 304 302 303 305 307 312 318 320 322 324
192 196 199 201 206 211 214 219 224 225 226 230 236 244 252 255 254 254 256 257 257 264 269 265 259 260 264 268 271 273 273 271 268 267 269 270 266 254 242 236 242 255 268 279 287 292 296 297 299 301 302 302 301 299 298 297 297 296 295 294 295 297 301 303 304 304 304 301 298 296 297 301 307 309 307 303 302 305 309 314 319 323 324 326 328
192 194 196 201 204 204 205 210 215 218 224 232 239 247 251 249 249 255 257 253 254 265 270 266 263 265 267 269 271 271 269 266 265 265 266 264 254 243 237 242 254 266 277 286 292 295 295 296 299 302 302 299 298 299 299 299 299 298 297 297 298 300 303 304 304 304 304 301 299 299 299 302 306 306 304 301 302 307 314 319 323 327 329 329 329
185 186 190 200 208 212 219 228 236 243 250 255 254 251 247 247 254 261 260 258 263 269 267 261 261 265 267 268 267 265 263 263 262 262 259 252 243 240 245 255 267 278 286 291 294 294 294 296 300 300 297 294 296 299 301 303 303 302 299 298 300 303 306 305 304 305 308 309 309 307 306 306 306 303 300 301 305 311 317 322 326 329 331 330 330
195 200 206 212 221 234 244 249 250 253 257 258 254 248 244 250 259 261 258 259 264 263 259 258 262 264 262 261 260 260 260 261 260 257 250 243 242 248 259 271 281 288 291 291 291 290 291 294 296 293 291 292 295 297 299 301 301 298 295 297 302 306 306 305 306 309 313 315 313 311 309 307 302 298 298 303 309 315 320 325 328 329 329 330 333
218 225 227 228 236 248 252 251 249 247 245 244 243 242 244 250 256 256 255 258 261 261 261 262 259 255 254 256 258 261 263 262 258 253 247 245 252 262 272 281 287 289 290 289 289 289 291 294 294 293 292 294 295 295 296 296 294 292 295 300 304 306 306 307 311 316 320 321 318 314 309 304 300 299 302 307 312 317 322 326 328 328 329 332 336
230 233 234 242 255 259 256 255 254 250 247 246 245 245 250 255 260 262 262 261 261 262 262 258 250 248 251 255 257 261 260 255 250 248 250 255 264 272 278 283 285 286 287 287 288 290 292 293 294 294 295 296 296 296 296 295 295 298 304 306 305 305 306 308 311 317 322 323 319 313 308 304 303 303 305 308 313 318 322 325 326 327 330 334 337
224 220 222 236 251 254 251 253 256 256 252 246 241 244 254 261 267 271 271 265 260 259 255 248 245 248 250 250 249 249 247 245 247 252 259 265 270 274 278 280 280 280 281 282 284 287 291 292 294 296 298 298 297 296 297 299 302 307 309 307 305 304 303 304 308 314 320 321 316 310 307 305 304 304 306 309 313 317 320 322 324 327 331 335 338
215 218 222 229 240 247 248 245 244 243 242 243 245 252 261 266 267 268 264 257 251 247 241 238 240 242 241 241 240 239 242 248 253 259 265 269 272 274 275 276 277 277 277 278 280 284 288 291 294 298 299 299 299 301 302 303 305 307 306 304 302 301 301 304 308 313 316 315 312 309 307 304 303 304 306 310 313 316 319 322 324 327 333 337 339
226 235 238 234 235 240 240 233 234 241 248 253 254 256 259 260 259 257 255 250 243 235 233 237 240 238 235 238 242 245 251 257 261 265 267 269 271 273 274 274 273 272 273 276 281 283 285 288 292 295 296 298 300 301 299 299 301 302 301 300 299 299 301 305 308 308 308 308 308 309 308 304 302 303 305 308 312 315 318 320 324 328 334 338 339
228 234 236 230 230 237 238 238 244 251 252 253 253 252 251 250 249 248 248 247 242 236 233 235 238 239 242 246 251 254 260 265 269 271 271 270 270 272 273 272 271 270 271 275 281 286 288 290 291 293 296 299 300 298 296 298 300 299 296 294 294 297 301 304 303 303 304 305 307 308 306 302 300 301 303 306 310 314 317 319 323 327 334 338 338
234 240 240 233 233 239 240 239 244 248 248 248 249 248 246 245 244 243 245 248 250 249 243 240 242 245 249 253 257 260 264 270 273 275 276 276 277 278 277 277 279 281 282 284 289 294 296 296 295 297 300 304 305 302 301 301 301 298 293 291 293 295 298 301 301 302 303 303 304 304 302 298 297 298 300 303 308 313 316 318 321 325 332 335 336
233 238 240 235 233 236 238 238 241 244 245 244 245 244 244 245 246 245 248 253 257 257 253 249 249 251 253 255 259 263 267 271 272 272 273 275 277 278 278 279 280 281 283 286 291 294 294 294 296 299 301 304 305 304 303 303 303 301 297 294 293 294 295 298 300 301 301 300 300 300 298 294 293 294 297 301 307 312 315 316 318 323 327 330 331
229 233 238 239 236 236 238 239 242 243 241 239 241 244 245 247 247 247 249 252 256 257 255 251 250 253 257 262 265 267 269 270 269 268 267 269 271 272 274 274 275 275 277 281 284 284 284 287 292 295 297 301 304 303 301 302 303 301 296 292 290 290 291 295 297 298 297 296 296 295 292 289 289 290 293 298 303 309 313 314 316 319 323 325 327
231 233 237 241 242 243 246 245 241 239 238 239 242 246 249 250 250 247 243 242 246 250 253 253 254 255 258 261 265 266 267 266 265 262 261 262 267 272 273 271 270 271 273 275 278 280 282 285 289 295 300 304 304 300 296 296 296 294 292 290 289 289 290 292 293 291 291 292 292 289 286 284 284 286 289 293 299 305 310 312 314 318 320 321 323
237 240 242 245 248 251 251 246 239 236 237 241 244 247 249 251 250 246 238 232 234 243 252 259 262 263 265 266 268 269 270 268 266 265 264 266 269 273 274 273 273 272 273 275 278 281 283 285 289 295 301 303 301 298 294 291 288 287 288 290 293 294 292 289 287 286 287 288 287 284 281 280 280 281 284 288 294 300 307 310 313 317 321 321 321
247 248 251 256 259 258 249 239 235 233 232 232 233 235 235 236 240 241 240 239 241 247 254 258 260 263 269 272 275 278 279 278 277 278 281 282 280 277 275 275 275 275 275 276 276 277 278 282 286 293 298 299 299 298 293 287 283 283 286 289 291 291 289 285 284 284 284 284 283 280 277 276 276 277 279 284 289 296 302 307 313 318 323 323 321
Height
3156 3157 3160 3162 3164 3166 3168 3170 3173 3175 3177 3178 3179 3181 3183 3184 3185 3186 3187 3189 3190 3191 3191 3192 3193 3194 3194 3195 3196 3196 3196 3196 3196 3195 3195 3195 3194 3194 3193 3193 3193 3192 3191 3191 3190 3190 3189 3188 3187 3187 3186 3186 3185 3184 3184 3184 3184 3184 3183 3183 3182 3182 3181 3182 3182 3181 3180 3179 3179 3178 3177 3177 3176 3175 3173 3172 3171 3170 3169 3168 3167 3167 3166 3165 3164
3154 3155 3157 3159 3161 3164 3166 3168 3170 3173 3175 3176 3177 3179 3180 3182 3183 3184 3185 3187 3188 3189 3190 3190 3191 3192 3193 3194 3194 3195 3195 3194 3193 3193 3193 3192 3192 3192 3191 3191 3190 3190 3189 3188 3188 3187 3187 3186 3185 3184 3183 3183 3182 3182 3182 3181 3181 3181 3181 3180 3180 3179 3179 3179 3180 3179 3179 3177 3177 3176 3176 3175 3174 3173 3171 3170 3169 3167 3166 3164 3163 3163 3162 3161 3160
3152 3153 3155 3157 3159 3162 3164 3166 3168 3170 3172 3173 3175 3176 3178 3180 3181 3182 3183 3184 3185 3186 3187 3188 3189 3189 3190 3191 3192 3192 3192 3192 3191 3190 3190 3190 3189 3189 3189 3188 3188 3187 3187 3186 3185 3185 3185 3184 3183 3182 3181 3180 3180 3180 3179 3179 3179 3179 3179 3179 3178 3177 3177 3177 3177 3177 3177 3176 3175 3174 3174 3173 3173 3171 3169 3168 3167 3165 3164 3162 3160 3159 3158 3156 3155
3149 3151 3152 3154 3157 3159 3161 3163 3165 3167 3169 3171 3172 3174 3176 3177 3179 3180 3181 3182 3183 3184 3185 3186 3186 3187 3188 3188 3189 3189 3190 3189 3189 3188 3188 3187 3187 3186 3186 3185 3185 3184 3184 3183 3183 3182 3181 3181 3181 3180 3179 3178 3178 3177 3177 3177 3177 3177 3176 3176 3176 3175 3175 3174 3174 3174 3175 3175 3174 3173 3172 3171 3171 3169 3167 3165 3164 3163 3161 3160 3158 3157 3156 3154 3152
3146 3148 3150 3152 3154 3156 3158 3160 3162 3164 3166 3168 3170 3172 3174 3175 3176 3177 3178 3179 3180 3181 3182 3183 3184 3184 3185 3185 3186 3186 3186 3186 3186 3186 3185 3185 3185 3184 3183 3182 3182 3182 3181 3181 3180 3179 3179 3178 3178 3177 3176 3176 3175 3175 3175 3175 3175 3175 3174 3174 3174 3173 3172 3172 3172 3172 3172 3172 3172 3171 3170 3169 3168 3167 3164 3162 3161 3159 3158 3157 3155 3154 3152 3151 3149
3143 3145 3147 3149 3151 3153 3156 3157 3159 3162 3164 3166 3168 3170 3171 3173 3174 3175 3176 3177 3178 3179 3180 3181 3181 3182 3182 3183 3183 3183 3183 3183 3183 3183 3183 3183 3182 3181 3180 3179 3179 3179 3178 3178 3177 3176 3176 3175 3175 3174 3174 3173 3173 3173 3173 3173 3173 3173 3172 3172 3172 3171 3171 3170 3169 3169 3168 3168 3168 3168 3168 3166 3165 3164 3162 3160 3157 3156 3155 3154 3153 3151 3149 3147 3146
3140 3142 3144 3146 3148 3150 3153 3155 3157 3159 3161 3164 3165 3167 3169 3170 3171 3173 3174 3174 3175 3176 3177 3178 3179 3179 3180 3180 3180 3180 3180 3180 3180 3179 3180 3180 3179 3179 3177 3176 3175 3175 3175 3174 3173 3173 3173 3172 3172 3172 3172 3171 3171 3171 3171 3171 3171 3171 3170 3170 3170 3169 3169 3168 3167 3166 3164 3164 3164 3164 3163 3162 3161 3160 3159 3157 3154 3152 3150 3149 3148 3148 3146 3143 3142
3137 3139 3141 3143 3145 3148 3150 3153 3155 3157 3159 3161 3163 3164 3166 3167 3169 3170 3171 3172 3173 3173 3174 3175 3176 3177 3177 3177 3177 3177 3176 3176 3176 3176 3176 3176 3176 3175 3174 3173 3172 3171 3171 3170 3169 3169 3169 3169 3169 3169 3169 3169 3168 3168 3168 3168 3168 3167 3167 3167 3167 3166 3166 3165 3164 3163 3162 3161 3160 3159 3158 3157 3156 3154 3153 3152 3150 3148 3146 3144 3142 3141 3140 3139 3138
3134 3135 3138 3140 3142 3145 3148 3150 3152 3154 3156 3158 3160 3162 3163 3164 3166 3167 3168 3170 3171 3171 3172 3173 3173 3174 3174 3174 3175 3174 3173 3173 3172 3172 3172 3173 3173 3172 3171 3169 3168 3167 3167 3166 3166 3166 3166 3166 3166 3166 3166 3166 3165 3164 3163 3164 3164 3164 3164 3164 3164 3163 3163 3162 3161 3160 3159 3157 3157 3155 3154 3153 3151 3149 3148 3147 3145 3143 3142 3139 3137 3136 3134 3133 3134
3130 3131 3133 3136 3139 3142 3146 3147 3149 3151 3153 3155 3157 3159 3161 3162 3162 3163 3164 3167 3168 3169 3170 3170 3171 3171 3171 3172 3172 3171 3170 3170 3169 3169 3169 3169 3169 3168 3167 3165 3164 3163 3163 3163 3163 3163 3162 3162 3162 3162 3162 3162 3161 3160 3159 3159 3160 3161 3161 3161 3160 3160 3159 3159 3158 3157 3156 3154 3153 3152 3150 3149 3148 3145 3144 3142 3140 3139 3137 3135 3133 3131 3129 3128 3129
3127 3128 3130 3133 3136 3139 3142 3144 3146 3148 3150 3152 3154 3156 3157 3159 3159 3160 3161 3162 3164 3166 3167 3168 3168 3169 3169 3169 3169 3168 3168 3167 3167 3166 3165 3165 3164 3163 3163 3162 3160 3159 3159 3159 3159 3159 3159 3158 3158 3158 3158 3157 3156 3155 3155 3156 3156 3157 3157 3157 3156 3156 3156 3156 3155 3154 3152 3151 3150 3149 3147 3145 3144 3142 3140 3138 3136 3134 3133 3130 3128 3127 3125 3123 3122
3123 3125 3127 3129 3132 3136 3139 3141 3143 3145 3147 3149 3150 3152 3154 3155 3156 3157 3157 3159 3161 3162 3163 3165 3166 3166 3166 3166 3166 3166 3165 3165 3164 3163 3162 3161 3160 3158 3158 3157 3156 3155 3155 3155 3155 3155 3155 3154 3154 3153 3153 3153 3152 3152 3152 3153 3153 3153 3153 3153 3152 3153 3153 3152 3152 3150 3149 3147 3146 3145 3143 3141 3140 3139 3137 3134 3132 3130 3128 3126 3124 3122 3121 3119 3117
3119 3121 3124 3126 3128 3132 3135 3137 3139 3141 3143 3146 3147 3149 3150 3151 3152 3153 3154 3156 3157 3159 3160 3161 3162 3163 3163 3163 3163 3163 3163 3162 3161 3160 3159 3157 3155 3154 3154 3154 3152 3152 3152 3151 3151 3151 3151 3151 3150 3149 3149 3148 3148 3148 3148 3148 3148 3149 3149 3149 3149 3149 3150 3150 3148 3147 3145 3144 3142 3141 3140 3137 3135 3134 3132 3130 3127 3125 3123 3121 3119 3118 3116 3114 3113
3116 3117 3120 3122 3124 3128 3131 3134 3136 3138 3140 3142 3144 3145 3146 3148 3149 3150 3151 3153 3154 3155 3157 3158 3159 3159 3160 3160 3160 3160 3159 3159 3158 3157 3155 3154 3151 3150 3151 3150 3148 3148 3148 3147 3147 3147 3147 3147 3146 3145 3144 3143 3143 3143 3143 3143 3143 3143 3144 3144 3145 3146 3147 3146 3145 3143 3142 3141 3139 3137 3135 3133 3131 3129 3127 3125 3123 3121 3118 3116 3115 3113 3111 3109 3108
3112 3114 3116 3118 3120 3123 3127 3129 3132 3134 3136 3138 3140 3141 3143 3144 3146 3147 3148 3150 3151 3152 3153 3154 3155 3155 3156 3156 3156 3156 3155 3155 3155 3153 3152 3150 3148 3147 3147 3146 3145 3144 3144 3143 3143 3143 3142 3142 3141 3140 3139 3139 3139 3139 3138 3138 3138 3139 3139 3140 3141 3142 3143 3143 3142 3140 3139 3138 3136 3134 3131 3129 3126 3124 3123 3121 3119 3117 3114 3112 3110 3108 3106 3104 3104
3109 3110 3112 3114 3116 3119 3122 3125 3127 3130 3132 3134 3136 3138 3139 3141 3142 3144 3145 3146 3148 3149 3150 3150 3151 3151 3152 3152 3152 3150 3150 3151 3151 3150 3149 3147 3145 3143 3143 3143 3141 3141 3140 3140 3140 3139 3138 3137 3137 3136 3136 3135 3134 3134 3133 3133 3135 3136 3136 3136 3137 3138 3139 3139 3139 3137 3136 3134 3132 3130 3127 3125 3123 3121 3119 3117 3115 3112 3109 3107 3105 3103 3101 3099 3099
3106 3107 3109 3110 3112 3114 3117 3120 3123 3126 3128 3131 3133 3134 3136 3138 3139 3140 3142 3143 3145 3146 3146 3147 3147 3148 3149 3149 3148 3146 3146 3147 3148 3147 3146 3144 3141 3140 3139 3139 3137 3137 3136 3136 3136 3135 3134 3133 3133 3134 3133 3130 3129 3129 3130 3131 3133 3134 3133 3132 3133 3134 3135 3136 3136 3134 3132 3130 3128 3125 3123 3121 3118 3116 3114 3112 3110 3107 3104 3103 3102 3100 3097 3095 3094
3102 3104 3105 3107 3108 3110 3112 3115 3118 3121 3124 3127 3129 3131 3133 3134 3136 3137 3139 3141 3142 3143 3143 3144 3145 3145 3145 3144 3143 3142 3142 3143 3143 3143 3142 3140 3138 3136 3135 3134 3133 3133 3133 3133 3133 3132 3130 3129 3129 3131 3130 3127 3125 3126 3128 3129 3129 3129 3129 3129 3130 3131 3132 3133 3132 3130 3128 3126 3123 3121 3119 3117 3114 3112 3110 3108 3106 3103 3100 3098 3097 3095 3093 3091 3089
3098 3101 3102 3103 3105 3106 3108 3110 3114 3117 3121 3124 3126 3128 3129 3131 3133 3134 3136 3137 3138 3140 3141 3141 3142 3141 3141 3140 3139 3139 3139 3139 3139 3138 3138 3136 3134 3132 3131 3130 3129 3129 3130 3130 3130 3128 3126 3125 3125 3126 3125 3123 3124 3125 3126 3126 3126 3126 3126 3126 3127 3128 3128 3128 3126 3124 3123 3121 3119 3117 3115 3113 3111 3108 3106 3104 3102 3099 3096 3095 3093 3091 3089 3087 3085
3094 3097 3098 3099 3101 3102 3104 3106 3110 3114 3117 3119 3122 3124 3126 3127 3129 3131 3132 3133 3135 3137 3138 3138 3138 3138 3137 3136 3136 3136 3136 3136 3135 3135 3134 3133 3131 3129 3128 3127 3126 3126 3126 3126 3126 3124 3123 3123 3122 3120 3119 3121 3124 3126 3125 3124 3124 3123 3123 3124 3124 3124 3124 3122 3121 3119 3117 3116 3114 3112 3110 3108 3106 3104 3102 3100 3097 3095 3093 3091 3089 3087 3084 3083 3081
3089 3091 3093 3095 3096 3097 3100 3103 3106 3110 3113 3115 3118 3120 3122 3124 3126 3128 3129 3130 3131 3133 3134 3134 3134 3134 3134 3134 3134 3134 3134 3133 3132 3132 3131 3129 3128 3126 3125 3124 3123 3123 3122 3122 3122 3121 3121 3120 3119 3117 3117 3119 3122 3123 3123 3122 3121 3120 3121 3120 3120 3119 3119 3118 3116 3115 3113 3112 3110 3108 3105 3103 3101 3099 3097 3095 3093 3091 3089 3087 3085 3083 3081 3079 3078
3082 3085 3088 3090 3091 3093 3096 3099 3102 3105 3108 3111 3114 3116 3118 3120 3122 3123 3125 3126 3128 3129 3129 3128 3129 3130 3131 3131 3132 3131 3130 3130 3129 3128 3127 3126 3124 3122 3121 3121 3120 3119 3118 3118 3118 3119 3118 3118 3116 3116 3116 3118 3119 3119 3120 3119 3119 3118 3117 3116 3116 3115 3114 3113 3112 3111 3109 3107 3105 3103 3101 3098 3096 3094 3092 3090 3088 3086 3084 3083 3081 3080 3078 3077 3075
3076 3079 3081 3084 3086 3088 3091 3094 3097 3100 3103 3107 3109 3111 3114 3116 3117 3119 3121 3123 3124 3124 3124 3124 3125 3125 3126 3126 3127 3127 3126 3125 3125 3124 3123 3121 3119 3118 3117 3117 3116 3115 3115 3115 3115 3116 3116 3115 3115 3114 3114 3115 3116 3116 3116 3116 3115 3114 3113 3112 3112 3111 3110 3109 3108 3107 3105 3103 3100 3098 3096 3093 3091 3089 3087 3085 3084 3082 3081 3079 3078 3077 3076 3075 3073
3070 3072 3074 3077 3080 3083 3085 3089 3092 3096 3099 3102 3105 3107 3110 3112 3114 3116 3117 3119 3120 3120 3121 3121 3121 3121 3120 3121 3121 3122 3122 3121 3120 3119 3118 3117 3115 3114 3113 3113 3112 3111 3112 3112 3113 3113 3113 3113 3112 3112 3112 3112 3113 3113 3113 3113 3112 3111 3110 3109 3109 3108 3107 3106 3104 3102 3100 3098 3095 3093 3091 3089 3087 3085 3083 3081 3080 3078 3077 3076 3075 3074 3072 3072 3071
3063 3065 3067 3070 3073 3077 3080 3084 3088 3092 3095 3098 3101 3104 3106 3108 3110 3112 3113 3115 3116 3116 3117 3118 3118 3117 3116 3116 3117 3118 3118 3117 3115 3114 3113 3112 3111 3110 3109 3109 3108 3108 3109 3110 3109 3109 3109 3109 3109 3109 3109 3110 3110 3110 3110 3110 3109 3108 3107 3106 3105 3104 3103 3101 3099 3097 3095 3093 3091 3089 3087 3085 3083 3081 3079 3078 3076 3075 3073 3073 3072 3070 3069 3068 3068
3056 3058 3061 3064 3068 3071 3075 3080 3084 3089 3092 3094 3098 3100 3103 3104 3106 3108 3109 3111 3111 3112 3113 3114 3114 3113 3113 3113 3114 3114 3114 3113 3111 3110 3109 3108 3108 3107 3106 3106 3106 3106 3106 3106 3106 3106 3106 3106 3106 3106 3107 3107 3107 3107 3107 3106 3106 3105 3104 3103 3102 3101 3099 3097 3095 3093 3091 3089 3087 3085 3083 3081 3079 3078 3076 3075 3073 3072 3070 3069 3069 3068 3066 3065 3064
3050 3052 3055 3058 3062 3067 3072 3077 3081 3085 3088 3090 3093 3096 3099 3101 3103 3104 3105 3107 3108 3109 3110 3111 3111 3110 3109 3109 3110 3110 3110 3108 3107 3106 3105 3105 3104 3104 3103 3103 3103 3103 3103 3103 3103 3103 3103 3103 3103 3104 3104 3105 3104 3104 3103 3103 3102 3101 3100 3099 3098 3097 3095 3093 3091 3089 3087 3085 3083 3081 3079 3078 3076 3075 3073 3072 3071 3069 3067 3066 3065 3064 3063 3061 3060
3043 3046 3050 3054 3059 3065 3070 3074 3078 3081 3084 3087 3090 3093 3096 3098 3099 3101 3102 3103 3104 3105 3107 3107 3107 3107 3106 3106 3105 3106 3105 3104 3103 3103 3102 3102 3101 3101 3101 3100 3100 3100 3101 3101 3101 3101 3101 3102 3102 3102 3102 3101 3101 3100 3100 3100 3099 3098 3097 3096 3095 3093 3091 3089 3087 3086 3084 3081 3080 3078 3076 3075 3073 3072 3071 3070 3068 3066 3064 3063 3061 3060 3059 3057 3056
3038 3042 3047 3052 3058 3063 3068 3071 3076 3079 3082 3085 3088 3091 3093 3094 3096 3097 3098 3099 3100 3101 3102 3102 3101 3102 3103 3102 3102 3101 3101 3100 3100 3099 3099 3098 3098 3098 3098 3098 3098 3098 3099 3100 3100 3100 3100 3100 3100 3099 3098 3098 3098 3098 3097 3096 3095 3094 3093 3092 3091 3089 3087 3085 3084 3082 3080 3078 3077 3075 3073 3072 3071 3069 3068 3067 3065 3063 3061 3060 3058 3057 3056 3054 3052
3037 3041 3046 3051 3056 3062 3066 3070 3074 3077 3081 3083 3085 3087 3089 3090 3092 3093 3094 3095 3096 3096 3096 3095 3096 3097 3099 3099 3098 3098 3097 3096 3096 3096 3095 3095 3095 3095 3095 3095 3096 3097 3097 3098 3098 3098 3098 3097 3097 3096 3096 3096 3095 3095 3094 3093 3092 3090 3089 3087 3086 3084 3082 3081 3080 3079 3077 3075 3074 3072 3071 3069 3068 3066 3065 3063 3062 3060 3058 3057 3055 3054 3052 3051 3049
3041 3044 3047 3051 3056 3061 3065 3069 3072 3075 3078 3080 3082 3084 3085 3087 3088 3089 3090 3091 3092 3091 3091 3090 3091 3094 3095 3095 3095 3094 3094 3093 3092 3092 3092 3092 3092 3092 3092 3093 3093 3094 3095 3096 3096 3095 3095 3095 3094 3094 3094 3093 3093 3092 3091 3089 3087 3086 3084 3083 3082 3080 3078 3076 3075 3075 3074 3073 3072 3070 3068 3067 3065 3064 3062 3060 3059 3057 3056 3054 3053 3051 3049 3048 3046
3042 3046 3049 3053 3057 3061 3064 3067 3070 3073 3075 3077 3079 3081 3082 3084 3085 3086 3086 3087 3087 3087 3087 3087 3088 3090 3091 3092 3092 3091 3090 3089 3089 3089 3089 3089 3089 3089 3089 3090 3091 3092 3092 3093 3093 3092 3092 3092 3092 3092 3091 3090 3089 3088 3087 3085 3084 3083 3081 3079 3078 3077 3075 3073 3072 3072 3072 3071 3070 3068 3066 3065 3063 3061 3059 3057 3056 3055 3054 3052 3050 3049 3047 3045 3044
3043 3048 3051 3054 3058 3061 3063 3066 3068 3070 3072 3074 3076 3077 3079 3080 3081 3081 3082 3083 3083 3083 3084 3085 3086 3087 3087 3088 3088 3088 3087 3086 3086 3086 3086 3086 3086 3086 3087 3087 3088 3089 3089 3090 3090 3090 3090 3090 3090 3090 3088 3088 3087 3086 3085 3084 3082 3081 3079 3077 3076 3074 3073 3071 3071 3070 3070 3068 3067 3065 3064 3062 3060 3058 3056 3055 3054 3052 3051 3050 3048 3046 3045 3043 3041
3047 3051 3054 3056 3058 3059 3061 3064 3065 3067 3069 3071 3072 3074 3075 3076 3076 3076 3077 3079 3080 3080 3081 3082 3083 3083 3084 3085 3085 3084 3084 3083 3083 3083 3083 3083 3083 3084 3085 3085 3085 3086 3086 3087 3088 3088 3088 3088 3088 3087 3086 3085 3085 3084 3082 3081 3079 3078 3076 3075 3074 3072 3071 3069 3068 3068 3067 3065 3064 3062 3061 3059 3057 3055 3054 3053 3052 3050 3049 3047 3046 3044 3042 3040 3039
3049 3052 3054 3056 3057 3058 3060 3061 3063 3065 3066 3067 3069 3070 3070 3071 3073 3073 3075 3076 3076 3077 3078 3079 3080 3081 3082 3082 3081 3081 3081 3081 3081 3081 3081 3081 3082 3082 3083 3083 3083 3084 3084 3085 3085 3085 3086 3085 3085 3084 3083 3082 3082 3081 3079 3078 3076 3074 3073 3072 3071 3070 3068 3067 3066 3065 3063 3062 3060 3059 3058 3056 3055 3053 3052 3051 3049 3048 3047 3045 3044 3042 3040 3038 3036
3050 3051 3053 3054 3055 3056 3058 3059 3060 3062 3063 3064 3065 3066 3067 3069 3071 3072 3073 3074 3074 3074 3075 3076 3077 3078 3079 3078 3078 3078 3078 3078 3078 3078 3079 3079 3080 3080 3081 3081 3081 3082 3082 3082 3082 3082 3083 3082 3082 3081 3080 3079 3078 3077 3076 3075 3073 3072 3070 3069 3068 3068 3066 3065 3063 3062 3060 3059 3057 3056 3055 3053 3052 3050 3049 3048 3047 3046 3044 3043 3041 3040 3038 3036 3034
3049 3050 3051 3052 3053 3054 3055 3056 3057 3058 3059 3060 3061 3063 3064 3066 3068 3069 3070 3071 3071 3071 3071 3073 3074 3076 3075 3075 3075 3075 3075 3076 3076 3076 3077 3077 3078 3079 3079 3079 3079 3079 3079 3079 3079 3080 3080 3079 3079 3078 3077 3075 3074 3073 3072 3071 3070 3069 3068 3066 3066 3065 3064 3063 3061 3059 3058 3056 3055 3053 3052 3051 3049 3048 3047 3046 3045 3044 3043 3041 3040 3038 3036 3034 3032
3047 3048 3049 3050 3050 3051 3052 3053 3054 3055 3056 3057 3058 3060 3062 3063 3064 3065 3067 3068 3068 3068 3069 3070 3071 3072 3072 3072 3072 3073 3073 3073 3074 3074 3075 3076 3076 3076 3077 3077 3076 3076 3076 3076 3077 3076 3076 3076 3076 3075 3074 3072 3071 3070 3069 3068 3067 3066 3065 3063 3062 3062 3062 3060 3059 3057 3055 3054 3052 3051 3049 3048 3047 3046 3045 3044 3043 3042 3041 3039 3038 3036 3035 3033 3031
3043 3045 3046 3046 3047 3048 3048 3049 3050 3051 3052 3053 3055 3057 3058 3059 3060 3062 3064 3065 3065 3065 3066 3067 3068 3068 3069 3069 3070 3070 3071 3071 3072 3072 3073 3073 3074 3074 3074 3074 3074 3073 3073 3074 3074 3073 3073 3073 3073 3072 3071 3070 3069 3068 3067 3066 3065 3064 3062 3061 3060 3059 3058 3057 3056 3055 3053 3052 3050 3049 3048 3046 3046 3045 3043 3042 3041 3040 3039 3038 3036 3035 3033 3032 3030
3040 3041 3042 3043 3044 3045 3046 3047 3048 3048 3050 3051 3052 3054 3055 3055 3056 3059 3061 3063 3062 3062 3063 3064 3064 3065 3066 3066 3067 3068 3068 3069 3069 3070 3070 3071 3071 3071 3072 3072 3071 3070 3070 3070 3070 3070 3069 3069 3069 3068 3067 3066 3066 3065 3064 3064 3062 3061 3061 3059 3058 3056 3055 3054 3053 3052 3051 3049 3048 3047 3046 3045 3044 3043 3041 3040 3039 3038 3037 3036 3035 3033 3032 3030 3028
3036 3037 3039 3040 3040 3041 3043 3045 3046 3047 3048 3049 3050 3051 3051 3052 3054 3056 3059 3060 3059 3059 3060 3061 3062 3062 3063 3064 3065 3065 3066 3067 3067 3067 3068 3068 3068 3069 3069 3069 3068 3067 3067 3067 3066 3066 3065 3064 3064 3064 3064 3063 3062 3062 3061 3060 3059 3059 3058 3057 3055 3054 3053 3052 3051 3049 3048 3047 3046 3045 3044 3043 3042 3041 3040 3039 3038 3037 3036 3035 3033 3032 3030 3029 3027
3033 3034 3035 3037 3038 3039 3042 3044 3045 3045 3046 3046 3047 3048 3049 3050 3052 3053 3055 3056 3056 3057 3058 3059 3059 3060 3061 3062 3062 3063 3064 3064 3064 3065 3065 3065 3065 3066 3066 3066 3066 3065 3064 3064 3063 3063 3061 3060 3060 3060 3060 3060 3059 3059 3058 3057 3056 3055 3055 3054 3053 3052 3051 3050 3049 3047 3046 3046 3045 3043 3042 3041 3040 3039 3038 3038 3037 3036 3035 3033 3032 3031 3029 3028 3026
3032 3033 3034 3036 3037 3039 3041 3043 3044 3044 3044 3045 3046 3047 3047 3048 3049 3050 3052 3053 3053 3054 3056 3056 3057 3058 3059 3059 3060 3060 3061 3061 3061 3062 3062 3062 3062 3063 3063 3063 3062 3062 3061 3061 3061 3060 3059 3058 3057 3057 3057 3057 3056 3055 3054 3054 3053 3053 3052 3051 3051 3050 3049 3048 3047 3046 3044 3043 3042 3041 3040 3039 3038 3037 3037 3036 3035 3034 3033 3032 3031 3029 3028 3027 3025
3032 3033 3034 3036 3037 3038 3040 3041 3042 3043 3044 3044 3045 3045 3046 3046 3047 3048 3049 3050 3051 3052 3054 3054 3054 3055 3056 3057 3057 3058 3058 3058 3058 3059 3060 3060 3060 3060 3060 3060 3060 3059 3059 3058 3057 3057 3057 3056 3055 3054 3054 3054 3053 3052 3052 3052 3052 3052 3050 3049 3048 3047 3046 3046 3045 3043 3042 3041 3040 3039 3038 3037 3037 3036 3035 3035 3034 3033 3032 3031 3030 3028 3027 3026 3024
3031 3032 3033 3035 3036 3037 3038 3040 3041 3042 3043 3043 3043 3044 3044 3044 3045 3046 3047 3048 3049 3051 3052 3053 3053 3053 3054 3054 3054 3054 3054 3055 3055 3056 3056 3057 3057 3056 3056 3057 3057 3057 3056 3055 3054 3054 3054 3053 3053 3052 3051 3051 3051 3050 3049 3050 3050 3049 3048 3047 3045 3044 3044 3043 3042 3041 3040 3039 3038 3037 3036 3036 3035 3034 3034 3033 3033 3032 3031 3030 3028 3027 3026 3025 3023
3030 3030 3032 3033 3035 3036 3037 3038 3039 3041 3042 3042 3042 3042 3042 3042 3043 3044 3044 3045 3046 3048 3049 3050 3051 3051 3051 3051 3051 3051 3051 3052 3052 3052 3052 3052 3051 3052 3052 3052 3052 3052 3051 3051 3051 3051 3050 3050 3050 3049 3048 3048 3047 3047 3047 3047 3047 3046 3045 3044 3042 3041 3040 3040 3039 3038 3037 3037 3036 3035 3035 3034 3033 3033 3032 3032 3031 3030 3029 3028 3027 3026 3025 3024 3022
3029 3030 3031 3032 3033 3035 3036 3037 3038 3039 3040 3040 3040 3040 3040 3041 3041 3042 3042 3043 3043 3044 3046 3047 3047 3047 3048 3048 3048 3048 3049 3049 3049 3049 3048 3048 3047 3047 3048 3048 3049 3049 3048 3048 3048 3048 3048 3047 3047 3046 3046 3046 3045 3044 3044 3043 3043 3043 3041 3040 3039 3038 3037 3037 3036 3036 3035 3034 3034 3033 3033 3032 3032 3031 3031 3030 3030 3029 3028 3027 3026 3025 3024 3023 3022
3027 3028 3029 3031 3033 3034 3035 3035 3036 3037 3038 3039 3039 3038 3038 3039 3040 3040 3040 3040 3040 3041 3042 3043 3044 3044 3045 3045 3045 3045 3046 3046 3046 3046 3045 3045 3045 3045 3045 3045 3046 3046 3046 3046 3046 3046 3045 3045 3044 3044 3044 3043 3043 3042 3040 3040 3039 3039 3038 3037 3036 3035 3034 3034 3034 3033 3033 3032 3032 3031 3031 3030 3030 3029 3029 3029 3028 3028 3027 3026 3025 3024 3023 3022 3020
3025 3026 3028 3030 3032 3032 3033 3034 3035 3035 3036 3037 3037 3036 3036 3037 3037 3038 3038 3039 3039 3039 3039 3040 3041 3041 3042 3041 3041 3042 3043 3043 3043 3042 3043 3043 3043 3042 3042 3042 3042 3043 3043 3043 3043 3042 3042 3042 3042 3041 3041 3041 3040 3039 3038 3037 3036 3036 3035 3034 3033 3033 3032 3032 3032 3031 3031 3030 3030 3029 3029 3028 3028 3028 3027 3027 3027 3026 3025 3024 3023 3022 3021 3020 3019
3025 3026 3027 3028 3029 3030 3031 3032 3032 3032 3033 3034 3034 3034 3034 3034 3034 3034 3035 3036 3037 3037 3037 3037 3037 3037 3037 3038 3038 3038 3039 3039 3039 3039 3040 3040 3040 3040 3040 3039 3039 3039 3040 3040 3039 3039 3039 3039 3039 3039 3038 3038 3037 3036 3035 3034 3034 3033 3032 3031 3031 3030 3030 3029 3029 3029 3028 3028 3028 3027 3027 3026 3026 3026 3025 3025 3025 3025 3024 3023 3022 3021 3020 3019 3018
3023 3024 3025 3026 3027 3028 3029 3029 3029 3030 3031 3031 3031 3031 3031 3031 3031 3031 3032 3033 3035 3036 3036 3036 3035 3035 3035 3035 3035 3035 3036 3036 3036 3036 3036 3037 3037 3037 3037 3037 3037 3037 3036 3036 3036 3036 3036 3036 3036 3036 3036 3035 3034 3033 3032 3032 3031 3030 3029 3029 3028 3028 3027 3027 3026 3026 3026 3026 3026 3025 3025 3024 3024 3024 3024 3023 3023 3023 3022 3022 3021 3020 3019 3018 3017